Tracking 35237 objects as of 6-Sep-2026
HD Live streaming from Space Station
objects crossing your sky now

COSMOS 1408 DEB


COSMOS 1408 DEB is no longer on orbit


NORAD ID: 49659
Int'l Code: 1982-092FC
Launch date: September 16, 1982
Source: Commonwealth of Independent States (former USSR) (CIS)
Launch site: PLESETSK MISSILE AND SPACE COMPLEX (PKMTR)
Decay date: 2022-10-12

Note: This is SATELLITE DEBRIS
Your satellite tracking list
Your tracking list is empty




NASA's NSSDC Master Catalog

Two Line Element Set (TLE):
1 49659U 82092FC  22282.87319595  .21077082 -11866-5  39319-2 0  9999
2 49659  82.4101 148.7684 0009809 256.3967 103.6235 16.32090539 49745
Source of the keplerian elements: AFSPC